Dewpoint
72 74 71 66 63 61 62 64 65 59 67 70 71 72 71 71 73 69 71 69 69 67 67 66 67 67 67 67 67 67 67 67 68 68 68 70 71 72
67 74 74 66 65 63 63 64 63 70 67 67 73 70 72 68 71 70 72 69 68 67 66 65 65 65 65 65 65 64 64 65 66 66 67 68 68 69
73 73 73 74 69 66 64 70 67 70 71 66 72 74 73 73 72 73 71 72 66 65 64 63 63 63 63 63 62 62 63 63 63 64 65 65 65 66
72 74 72 71 75 75 71 75 71 75 75 72 75 69 73 73 74 73 69 67 67 64 63 61 61 61 61 60 59 60 60 60 61 61 61 62 62 63
73 74 72 74 76 72 73 76 77 74 75 71 71 73 73 74 74 73 73 76 71 63 62 61 60 59 58 57 57 57 57 58 58 59 59 60 61 61
75 72 72 74 75 76 76 76 75 74 75 72 68 68 70 73 71 71 72 76 74 71 64 63 61 59 58 58 57 56 55 55 55 56 57 58 58 59
74 73 75 75 70 72 76 74 74 73 74 72 71 68 72 70 70 73 69 74 74 74 74 66 59 60 58 58 57 56 54 54 53 53 53 53 55 56
74 74 74 71 70 67 67 65 69 72 71 67 72 69 71 72 70 65 67 68 68 63 68 65 67 63 58 54 56 55 53 52 53 52 52 52 53 53
74 74 72 73 72 70 63 63 62 62 63 69 69 70 69 66 67 65 63 63 61 57 64 65 64 61 59 50 55 54 53 53 52 51 51 51 51 51
73 74 75 73 72 73 69 68 68 69 66 64 67 64 65 65 65 64 65 66 64 56 60 60 63 59 59 54 55 54 53 52 52 50 49 48 49 49
72 72 73 72 63 62 71 71 68 65 60 60 59 56 56 56 59 62 57 58 56 61 60 55 57 53 58 58 53 54 54 53 52 50 48 48 48 47
74 72 62 69 57 59 70 71 67 65 64 64 63 61 60 58 58 61 58 59 57 59 54 51 48 48 47 57 57 53 52 53 51 51 52 50 47 50
70 69 66 55 55 55 60 70 64 62 63 64 63 62 60 60 59 60 64 57 51 51 53 52 49 46 45 44 47 54 54 52 52 51 51 50 48 49
69 66 61 53 52 54 58 54 56 58 60 61 61 62 61 61 57 56 59 59 56 60 59 60 49 47 46 43 42 45 46 49 52 52 54 51 49 49
67 60 53 52 52 54 54 55 55 61 62 61 62 59 53 54 58 58 58 63 59 56 50 57 53 56 48 44 43 44 44 45 46 46 50 53 52 51
55 55 56 57 55 56 59 59 59 58 58 57 56 52 52 50 48 47 45 44 44 49 56 55 57 59 49 46 45 44 45 43 45 49 49 48 52 54
57 58 59 58 58 58 59 58 58 59 57 56 54 52 50 53 50 47 49 45 43 43 42 48 57 59 52 56 46 45 44 43 43 47 50 49 56 55
57 57 56 57 57 57 58 58 60 58 58 58 57 53 52 52 52 53 51 47 44 44 43 46 48 46 47 53 49 44 43 43 45 49 54 47 45 48
54 54 54 54 54 56 56 52 52 54 57 49 49 49 54 52 48 48 52 50 48 44 44 46 44 43 40 38 45 48 46 43 42 44 47 49 45 51
54 55 56 56 51 50 50 49 50 54 52 52 50 48 52 52 50 48 48 45 43 43 43 46 45 44 41 41 43 47 47 46 44 43 41 42 48 49
56 55 52 52 52 51 52 54 53 52 53 54 52 51 48 47 47 45 43 45 44 45 42 42 47 51 46 48 45 47 50 48 49 46 47 41 40 42
52 53 54 55 55 56 56 53 51 51 53 51 52 54 52 50 45 44 43 42 43 41 41 42 48 44 43 41 41 45 43 48 48 48 48 46 39 35
53 53 54 54 55 55 55 53 47 49 50 48 46 47 48 44 44 43 42 42 41 41 44 42 41 42 42 41 41 39 45 43 41 40 48 48 48 47
Lifted_Index
-4 -5 -4 -3 -2 -2 -2 -2 -2 -2 -3 -3 -3 -3 -3 -3 -3 -3 -3 -2 -1 0 1 1 1 1 1 2 2 2 3 4 4 4 3 2 2 1
-4 -4 -4 -3 -2 -2 -2 -2 -3 -3 -3 -3 -3 -4 -4 -3 -3 -3 -3 -2 -1 -0 1 1 1 1 2 2 2 2 3 4 5 5 4 4 3 3
-4 -4 -4 -4 -4 -3 -3 -3 -4 -4 -4 -4 -4 -4 -4 -4 -4 -4 -3 -2 -2 -1 1 1 1 2 2 2 2 2 3 4 5 5 5 5 5 5
-4 -4 -4 -4 -5 -4 -4 -5 -5 -5 -5 -4 -4 -4 -4 -5 -4 -4 -3 -2 -2 -1 1 1 2 2 2 2 2 2 3 4 5 5 5 5 5 5
-5 -5 -4 -5 -5 -5 -5 -5 -5 -5 -5 -4 -4 -4 -4 -4 -4 -4 -4 -3 -2 -1 1 2 2 2 2 2 2 2 3 3 4 4 5 5 4 4
-5 -5 -5 -5 -5 -5 -5 -5 -5 -5 -4 -4 -4 -4 -4 -4 -4 -3 -4 -3 -3 -1 -0 1 2 2 2 2 2 2 2 3 3 4 4 5 5 5
-5 -5 -5 -5 -5 -4 -4 -4 -5 -4 -4 -4 -4 -4 -4 -4 -3 -3 -3 -3 -2 -1 -0 1 2 2 3 3 3 3 3 4 4 5 5 5 5 5
-5 -5 -5 -5 -4 -3 -3 -3 -3 -3 -3 -3 -3 -3 -3 -3 -2 -1 -1 -1 -1 -0 1 2 3 3 4 4 4 4 4 5 5 6 6 6 5 5
-4 -5 -5 -5 -4 -3 -2 -2 -2 -2 -2 -2 -2 -2 -2 -1 -0 0 0 1 1 2 3 3 4 5 5 6 6 6 6 7 7 6 6 5 5 6
-4 -5 -5 -5 -4 -3 -3 -2 -2 -1 -1 -1 -1 -0 0 1 1 2 2 2 3 4 5 5 5 5 5 6 7 8 8 9 9 8 7 6 6 6
-4 -4 -4 -4 -3 -3 -3 -2 -2 -1 0 0 0 1 2 2 3 3 4 4 4 5 5 5 5 5 5 5 6 7 8 9 9 9 8 8 7 7
-4 -4 -4 -3 -2 -2 -2 -2 -1 0 1 1 1 2 3 3 3 4 4 5 5 5 5 6 6 6 5 4 5 5 6 7 8 8 8 8 8 8
-3 -3 -2 -2 -1 -1 -1 0 1 2 3 3 2 3 3 4 4 5 5 6 6 5 5 5 5 6 6 6 5 5 6 6 7 7 8 8 8 9
-2 -2 -1 -1 -1 0 1 2 4 4 4 3 3 3 4 4 5 5 5 5 5 4 4 4 5 6 6 7 7 6 7 7 7 7 7 7 8 8
-1 -1 -0 1 2 3 4 5 5 5 5 4 4 5 6 6 5 5 5 4 4 4 4 5 5 6 6 7 7 7 8 7 7 7 7 7 7 6
-1 0 1 3 5 7 7 7 6 6 5 5 6 6 6 6 5 5 5 5 5 5 6 6 6 5 6 7 7 7 8 8 8 7 7 6 5 5
1 2 3 5 7 8 8 7 7 7 6 6 6 6 5 5 5 5 6 6 7 7 7 7 6 6 6 6 7 8 8 8 7 6 6 5 4 3
5 5 6 7 8 8 8 8 7 7 6 6 5 5 4 4 5 6 6 7 7 7 7 7 7 7 7 7 7 8 8 7 7 5 4 3 3 2
8 8 8 9 9 9 8 8 7 6 5 5 5 5 5 5 6 6 7 7 7 7 7 7 7 8 8 7 7 7 7 6 6 5 4 3 3 2
9 9 9 9 8 7 7 7 6 5 4 5 6 6 6 6 7 7 7 7 7 7 7 7 7 8 8 7 6 6 6 5 5 4 4 3 3 3
9 9 8 7 6 5 5 5 5 5 5 6 7 7 7 7 7 7 7 7 7 7 7 7 7 7 7 6 5 5 5 5 4 4 4 3 3 3
7 7 6 5 4 4 5 5 6 7 7 7 7 7 7 7 7 7 7 7 7 7 7 7 7 7 6 6 5 4 4 4 4 4 3 3 4 4
5 5 4 4 4 5 6 7 8 8 8 8 8 7 7 7 8 8 7 7 7 7 7 7 7 6 6 6 5 4 4 4 3 3 3 3 3 4